Location: ČR
(50.0000°N, 15.0000°E)
Time: 16:45:43
(UTC+01:00)

Courier 1B - Pass Details

Date: 13 February 2026
Orbit: 962 x 1208 km, 28.3° (Epoch: 16 March)

Event Time Altitude Azimuth Distance (km) Brightness Sun altitude
Rises 01:18:07 0° 240° (WSW) 4,106 - -51.2°
Reaches altitude 10° 01:23:52 10° 208° (SSW) 3,124 - -50.7°
Maximum altitude 01:25:41 11° 194° (SSW) 3,044 - -50.6°
Drops below altitude 10° 01:27:30 10° 180° (S) 3,102 - -50.5°
Sets 01:33:09 0° 147° (SSE) 4,013 - -50.0°
